"startDT [UTC]","vpos","CH4 [ppm]","stdev(CH4) [ppm]","CO2 [ppm]","stdev(CO2) [ppm]","H2O_reported [%]","stdev(H2O_reported)","CavityPressure [torr]","CavityTemp [C]","OutletValve","CH4_dry [ppm]","CO2_dry [ppm]","DasTemp [C]","EtalonTemp [C]","WarmBoxTemp [C]","MPVPosition","T_ECpre [C]","T_EC1 [C]","T_EC2 [C]","p_inlet [hPa]","p_in [hPa]","p_out [hPa]","T_inlet [C]","RH_inlet [%]","dwpt_inlet [C]","T_vent [C]","RH_vent [%]","dwpt_vent [C]","flow_vent [l min-1]","flow_inlet [l min-1]","dwpt_sample [C]","T_room [C]"
2016-03-07 00:00:00,3.0,1.88416,0.02124,399.370,3.238,0.0213,0.0282,139.991,44.989,31374.23711,1.88666,399.650,36.438,45.070,45.000,0.00,0.08,-272.76,-272.83,-10,472,-948,23.7,2.4,-26.5,23.8,2.4,-26.2,5.73,1.73,-17.5,30.0
2016-03-07 00:01:00,3.0,1.87614,0.00029,397.168,0.033,0.0041,0.0020,140.001,44.989,31350.89564,1.87622,397.188,36.438,45.070,45.000,0.00,0.08,-272.76,-272.82,-9,473,-948,23.7,2.3,-26.8,23.8,2.4,-26.3,5.73,1.92,-17.5,29.9
2016-03-07 00:02:00,3.0,1.87580,0.00031,397.390,0.084,0.0040,0.0021,140.000,44.997,31348.77686,1.87590,397.405,36.432,45.069,44.999,0.00,0.08,-272.77,-272.83,-10,474,-948,23.7,2.3,-26.9,23.8,2.4,-26.6,5.73,1.96,-17.5,30.0
2016-03-07 00:03:00,3.0,1.87568,0.00035,397.524,0.042,0.0041,0.0020,139.998,45.002,31350.85777,1.87575,397.541,36.408,45.069,44.999,0.00,0.08,-272.77,-272.83,-10,474,-948,23.7,2.3,-26.9,23.8,2.3,-26.6,5.73,1.74,-17.5,29.9
2016-03-07 00:04:00,3.0,1.87566,0.00032,397.535,0.026,0.0035,0.0017,140.001,45.003,31349.95789,1.87572,397.553,36.422,45.069,45.000,0.00,0.08,-272.76,-272.82,-8,475,-948,23.7,2.3,-27.1,23.8,2.4,-26.6,5.73,2.09,-17.5,29.9
2016-03-07 00:05:00,3.0,1.87553,0.00029,397.530,0.031,0.0026,0.0021,140.002,45.001,31348.17723,1.87559,397.543,36.426,45.069,45.000,0.00,0.08,-272.76,-272.82,-10,475,-948,23.7,2.3,-27.1,23.8,2.3,-26.7,5.73,1.70,-17.5,29.9
2016-03-07 00:06:00,3.0,1.87578,0.00036,397.534,0.027,0.0020,0.0019,139.998,45.000,31342.63174,1.87580,397.543,36.396,45.069,45.000,0.00,0.08,-272.78,-272.83,-10,475,-948,23.8,2.3,-27.0,23.8,2.3,-26.7,5.73,2.02,-17.5,29.9
2016-03-07 00:07:00,3.0,1.87597,0.00042,397.556,0.032,0.0020,0.0022,139.998,44.998,31338.46207,1.87601,397.566,36.399,45.069,45.000,0.00,0.08,-272.76,-272.83,-8,475,-948,23.8,2.3,-27.0,23.8,2.3,-26.7,5.73,1.85,-17.5,30.0
2016-03-07 00:08:00,3.0,1.87615,0.00036,397.575,0.031,0.0006,0.0017,139.997,44.997,31333.04885,1.87613,397.578,36.399,45.070,45.000,0.00,0.08,-272.76,-272.82,-10,476,-948,23.8,2.3,-27.0,23.8,2.3,-26.6,5.73,1.81,-17.5,30.0
2016-03-07 00:09:00,3.0,1.87604,0.00031,397.549,0.025,0.0011,0.0021,140.001,44.996,31332.12893,1.87607,397.554,36.405,45.070,45.000,0.00,0.08,-272.78,-272.82,-9,476,-948,23.8,2.3,-27.0,23.9,2.3,-26.6,5.73,2.05,-17.5,30.0
2016-03-07 00:10:00,3.0,1.87594,0.00031,397.556,0.027,0.0002,0.0020,140.000,44.995,31329.35079,1.87596,397.556,36.403,45.070,45.000,0.00,0.08,-272.77,-272.82,-9,476,-948,23.8,2.3,-26.8,23.9,2.4,-26.5,5.73,1.69,-17.6,30.0
2016-03-07 00:11:00,3.0,1.87589,0.00041,397.536,0.038,-0.0002,0.0018,140.001,44.995,31327.68586,1.87589,397.537,36.420,45.070,45.000,0.00,0.08,-272.77,-272.82,-10,476,-948,23.9,2.3,-26.9,23.9,2.4,-26.4,5.73,2.07,-17.6,30.0
2016-03-07 00:12:00,3.0,1.87597,0.00042,397.543,0.027,0.0004,0.0016,140.000,44.995,31324.78193,1.87597,397.542,36.428,45.070,45.000,0.00,0.08,-272.76,-272.83,-9,476,-948,23.9,2.3,-26.8,23.9,2.4,-26.4,5.73,1.77,-17.5,30.0
2016-03-07 00:13:00,3.0,1.87603,0.00043,397.567,0.030,-0.0000,0.0015,140.001,44.996,31322.57256,1.87602,397.569,36.423,45.069,45.000,0.00,0.08,-272.78,-272.83,-9,476,-948,23.9,2.3,-26.8,23.9,2.4,-26.3,5.73,1.92,-17.6,30.0
2016-03-07 00:14:00,3.0,1.87586,0.00033,397.525,0.029,0.0005,0.0015,140.000,44.996,31321.48843,1.87587,397.527,36.399,45.069,45.000,0.00,0.08,-272.76,-272.82,-10,477,-948,23.9,2.3,-26.8,24.0,2.4,-26.4,5.73,1.96,-17.6,30.0
2016-03-07 00:15:00,3.0,1.87598,0.00025,397.545,0.038,0.0004,0.0015,139.999,44.997,31318.87165,1.87598,397.547,36.380,45.069,45.000,0.00,0.08,-272.76,-272.82,-9,477,-948,23.9,2.3,-26.8,24.0,2.4,-26.4,5.73,1.74,-17.6,30.0
2016-03-07 00:16:00,3.0,1.87603,0.00031,397.540,0.031,-0.0003,0.0019,140.001,44.998,31320.42864,1.87604,397.538,36.375,45.069,45.000,0.00,0.08,-272.77,-272.83,-10,477,-948,24.0,2.3,-26.8,24.0,2.4,-26.2,5.73,2.09,-17.6,30.0
2016-03-07 00:17:00,3.0,1.87576,0.00026,397.544,0.027,-0.0006,0.0016,139.998,44.998,31320.13523,1.87577,397.542,36.388,45.069,45.000,0.00,0.08,-272.76,-272.83,-10,477,-948,24.0,2.3,-26.8,24.0,2.4,-26.4,5.73,1.70,-17.6,30.0
2016-03-07 00:18:00,3.0,1.87624,0.00038,397.560,0.035,-0.0004,0.0013,140.000,44.999,31317.41073,1.87620,397.555,36.430,45.069,45.000,0.00,0.08,-272.76,-272.82,-9,477,-948,24.0,2.3,-26.8,24.0,2.4,-26.2,5.73,2.03,-17.6,30.1
2016-03-07 00:19:00,3.0,1.87606,0.00034,397.547,0.029,-0.0006,0.0026,139.999,44.999,31318.86449,1.87606,397.547,36.411,45.069,45.000,0.00,0.08,-272.76,-272.83,-10,478,-948,24.1,2.3,-26.7,24.0,2.4,-26.2,5.73,1.82,-17.6,30.1
2016-03-07 00:20:00,0.0,1.92975,0.02040,405.732,3.291,0.0661,0.0301,140.021,44.999,31589.41356,1.92890,405.886,36.390,45.069,45.000,0.00,0.08,-272.77,-272.83,-11,517,-948,24.1,2.3,-26.6,24.0,2.4,-26.3,5.73,1.91,-17.6,30.1
2016-03-07 00:21:00,0.0,1.93810,0.00023,407.142,0.033,0.0857,0.0016,140.002,45.000,31613.28770,1.93975,407.562,36.375,45.069,45.000,0.00,0.08,-272.77,-272.81,-10,518,-948,24.1,2.3,-26.6,24.1,2.4,-26.2,5.73,2.11,-17.6,30.1
2016-03-07 00:22:00,0.0,1.93791,0.00031,407.139,0.031,0.0864,0.0013,140.000,45.000,31621.49211,1.93954,407.562,36.374,45.069,45.000,0.00,0.08,-272.77,-272.81,-11,518,-948,24.1,2.3,-26.7,24.1,2.4,-26.2,5.73,1.80,-17.6,30.1
2016-03-07 00:23:00,0.0,1.93801,0.00040,407.126,0.030,0.0853,0.0011,140.001,45.000,31626.94925,1.93965,407.546,36.374,45.069,45.000,0.00,0.08,-272.78,-272.82,-11,518,-948,24.2,2.2,-26.9,24.1,2.3,-26.4,5.73,1.86,-17.6,30.1
2016-03-07 00:24:00,0.0,1.93800,0.00033,407.125,0.034,0.0864,0.0021,139.999,45.001,31630.46420,1.93967,407.548,36.377,45.069,45.000,0.00,0.08,-272.76,-272.84,-10,519,-948,24.2,2.2,-27.0,24.1,2.3,-26.5,5.73,2.10,-17.6,30.1
2016-03-07 00:25:00,0.0,1.93812,0.00037,407.112,0.027,0.0863,0.0015,139.998,45.001,31634.49064,1.93974,407.535,36.417,45.069,45.000,0.00,0.09,-272.78,-272.83,-10,519,-948,24.2,2.2,-27.0,24.1,2.3,-26.5,5.73,1.79,-17.5,30.1
2016-03-07 00:26:00,0.0,1.93791,0.00029,407.128,0.039,0.0861,0.0016,139.998,45.001,31637.85520,1.93958,407.551,36.437,45.069,45.000,0.00,0.08,-272.76,-272.83,-11,519,-948,24.2,2.2,-27.0,24.1,2.3,-26.6,5.73,1.88,-17.6,30.1
2016-03-07 00:27:00,0.0,1.93792,0.00033,407.137,0.025,0.0859,0.0021,140.000,45.001,31641.24975,1.93956,407.556,36.425,45.069,45.000,0.00,0.08,-272.79,-272.81,-11,519,-948,24.2,2.2,-27.1,24.1,2.3,-26.6,5.73,2.10,-17.6,30.1
2016-03-07 00:28:00,0.0,1.93807,0.00042,407.131,0.025,0.0871,0.0016,140.002,45.001,31640.43621,1.93974,407.558,36.423,45.069,44.999,0.00,0.09,-272.75,-272.82,-10,519,-948,24.2,2.2,-26.9,24.1,2.3,-26.5,5.73,1.77,-17.6,30.1
2016-03-07 00:29:00,0.0,1.93767,0.00038,407.117,0.035,0.0874,0.0015,140.003,45.007,31649.98532,1.93936,407.545,36.422,45.069,44.999,0.00,0.08,-272.77,-272.82,-10,519,-948,24.2,2.3,-26.9,24.1,2.3,-26.6,5.73,1.90,-17.6,30.1
2016-03-07 00:30:00,0.0,1.93794,0.00037,407.114,0.031,0.0873,0.0019,140.000,45.011,31654.24990,1.93959,407.542,36.433,45.069,44.999,0.00,0.08,-272.78,-272.83,-12,519,-948,24.2,2.3,-26.8,24.1,2.3,-26.5,5.73,2.09,-17.6,30.1
2016-03-07 00:31:00,0.0,1.93784,0.00045,407.101,0.034,0.0888,0.0017,139.999,45.010,31660.87259,1.93950,407.535,36.438,45.069,45.000,0.00,0.08,-272.75,-272.83,-11,519,-948,24.2,2.3,-26.7,24.1,2.4,-26.4,5.73,1.76,-17.6,30.1
2016-03-07 00:32:00,0.0,1.93805,0.00030,407.123,0.037,0.0883,0.0022,140.000,45.007,31664.60737,1.93975,407.555,36.428,45.069,45.000,0.00,0.08,-272.76,-272.82,-10,519,-948,24.1,2.3,-26.6,24.1,2.4,-26.2,5.73,1.92,-17.6,30.1
2016-03-07 00:33:00,0.0,1.93808,0.00036,407.129,0.028,0.0885,0.0014,140.001,45.004,31665.29687,1.93977,407.562,36.431,45.070,45.000,0.00,0.08,-272.77,-272.83,-11,519,-948,24.1,2.3,-26.7,24.1,2.4,-26.3,5.73,2.07,-17.6,30.1
2016-03-07 00:34:00,0.0,1.93792,0.00038,407.120,0.030,0.0892,0.0011,139.999,45.002,31666.29401,1.93963,407.558,36.417,45.070,45.001,0.00,0.08,-272.76,-272.82,-11,519,-948,24.1,2.3,-26.6,24.1,2.4,-26.3,5.73,1.74,-17.6,30.1
2016-03-07 00:35:00,0.0,1.93811,0.00027,407.121,0.033,0.0910,0.0014,140.000,45.000,31668.16924,1.93983,407.567,36.429,45.070,45.001,0.00,0.08,-272.77,-272.82,-10,519,-948,24.1,2.4,-26.3,24.1,2.5,-25.9,5.73,1.96,-17.6,30.1
2016-03-07 00:36:00,0.0,1.93807,0.00028,407.139,0.022,0.0896,0.0012,140.000,44.998,31668.26707,1.93980,407.578,36.404,45.070,45.001,0.00,0.08,-272.77,-272.82,-10,519,-948,24.1,2.3,-26.4,24.1,2.5,-25.9,5.73,2.05,-17.6,30.1
2016-03-07 00:37:00,0.0,1.93819,0.00041,407.144,0.028,0.0889,0.0016,140.000,44.997,31667.32384,1.93989,407.581,36.390,45.070,45.001,0.00,0.08,-272.76,-272.82,-11,519,-948,24.1,2.3,-26.5,24.1,2.4,-26.0,5.73,1.73,-17.6,30.1
2016-03-07 00:38:00,0.0,1.93812,0.00031,407.135,0.035,0.0895,0.0020,139.999,44.996,31666.89540,1.93983,407.573,36.410,45.070,45.001,0.00,0.08,-272.77,-272.82,-10,519,-948,24.1,2.4,-26.4,24.1,2.5,-26.0,5.73,2.00,-17.6,30.1
2016-03-07 00:39:00,0.0,1.93810,0.00033,407.125,0.029,0.0899,0.0020,140.001,44.995,31665.73815,1.93980,407.567,36.432,45.070,45.000,0.00,0.08,-272.76,-272.82,-10,519,-948,24.1,2.4,-26.3,24.1,2.5,-26.0,5.73,2.02,-17.6,30.1
2016-03-07 00:40:00,0.0,1.93828,0.00037,407.135,0.034,0.0898,0.0014,140.000,44.995,31663.12917,1.93998,407.574,36.433,45.070,45.000,0.00,0.08,-272.77,-272.82,-11,519,-948,24.1,2.4,-26.4,24.0,2.5,-26.0,5.73,1.73,-17.6,30.1
2016-03-07 00:41:00,0.0,1.93830,0.00032,407.144,0.022,0.0892,0.0020,140.000,44.996,31662.11551,1.94001,407.581,36.414,45.070,45.000,0.00,0.08,-272.76,-272.82,-11,519,-948,24.1,2.4,-26.4,24.0,2.5,-26.0,5.73,2.03,-17.6,30.1
2016-03-07 00:42:00,0.0,1.93857,0.00044,407.121,0.030,0.0894,0.0019,140.001,44.996,31660.60853,1.94024,407.559,36.377,45.069,45.000,0.00,0.08,-272.76,-272.83,-10,519,-948,24.1,2.4,-26.3,24.0,2.5,-26.0,5.73,1.98,-17.6,30.0
2016-03-07 00:43:00,0.0,1.93883,0.00031,407.138,0.035,0.0897,0.0014,139.999,44.997,31657.38903,1.94056,407.576,36.376,45.070,45.000,0.00,0.08,-272.77,-272.83,-10,519,-948,24.1,2.4,-26.3,24.0,2.5,-25.9,5.73,1.73,-17.6,30.1
2016-03-07 00:44:00,0.0,1.93846,0.00034,407.147,0.032,0.0874,0.0022,139.999,44.997,31654.21597,1.94013,407.576,36.375,45.070,45.000,0.00,0.08,-272.77,-272.82,-11,519,-948,24.0,2.3,-26.6,24.0,2.4,-26.1,5.73,2.07,-17.6,30.0
2016-03-07 00:45:00,0.0,1.93848,0.00026,407.141,0.038,0.0874,0.0017,140.000,44.998,31654.00920,1.94015,407.569,36.376,45.070,45.000,0.00,0.08,-272.75,-272.82,-10,519,-948,24.0,2.3,-26.7,24.0,2.4,-26.2,5.73,1.93,-17.6,30.1
2016-03-07 00:46:00,0.0,1.93836,0.00034,407.145,0.031,0.0872,0.0020,140.000,44.998,31653.23398,1.94002,407.571,36.375,45.070,45.001,0.00,0.08,-272.76,-272.83,-10,519,-948,24.0,2.3,-26.7,24.0,2.4,-26.2,5.73,1.75,-17.6,30.0
2016-03-07 00:47:00,0.0,1.93813,0.00034,407.118,0.029,0.0878,0.0018,139.997,44.999,31652.23344,1.93981,407.549,36.377,45.070,45.001,0.00,0.08,-272.78,-272.82,-11,519,-948,24.0,2.3,-26.6,24.0,2.4,-26.2,5.73,2.09,-17.6,30.0
2016-03-07 00:48:00,0.0,1.93817,0.00041,407.115,0.034,0.0876,0.0016,139.997,44.999,31651.19446,1.93983,407.543,36.379,45.070,45.001,0.00,0.08,-272.74,-272.84,-11,519,-948,24.0,2.3,-26.6,24.0,2.4,-26.2,5.73,1.88,-17.6,30.0
2016-03-07 00:49:00,0.0,1.93862,0.00041,407.126,0.028,0.0874,0.0012,140.001,45.000,31649.29538,1.94031,407.554,36.401,45.070,45.000,0.00,0.08,-272.78,-272.78,-10,519,-948,24.0,2.3,-26.6,24.0,2.4,-26.2,5.73,1.79,-17.6,30.0
2016-03-07 00:50:00,0.0,1.93839,0.00034,407.135,0.035,0.0884,0.0019,139.999,45.001,31647.92050,1.94007,407.569,36.437,45.070,45.000,0.00,0.08,-272.78,-272.83,-10,519,-948,24.0,2.3,-26.5,24.0,2.4,-26.2,5.73,2.12,-17.6,30.0
2016-03-07 00:51:00,0.0,1.93811,0.00042,407.121,0.031,0.0881,0.0022,139.999,45.001,31649.14338,1.93981,407.554,36.441,45.070,45.000,0.00,0.08,-272.75,-272.83,-11,519,-948,24.0,2.4,-26.5,24.0,2.4,-26.1,5.73,1.81,-17.6,30.0
2016-03-07 00:52:00,0.0,1.93812,0.00035,407.114,0.035,0.0883,0.0011,139.999,45.001,31650.20344,1.93980,407.547,36.449,45.069,45.000,0.00,0.08,-272.78,-272.80,-10,519,-948,24.0,2.3,-26.6,24.0,2.4,-26.2,5.73,1.86,-17.6,30.0
2016-03-07 00:53:00,0.0,1.93854,0.00056,407.099,0.031,0.0879,0.0020,140.000,45.001,31649.94143,1.94020,407.531,36.490,45.070,45.000,0.00,0.08,-272.77,-272.82,-10,519,-948,24.0,2.3,-26.6,24.0,2.4,-26.2,5.73,2.10,-17.6,30.0
2016-03-07 00:54:00,0.0,1.93849,0.00057,407.096,0.030,0.0898,0.0017,139.998,45.001,31649.20599,1.94022,407.535,36.490,45.069,45.000,0.00,0.08,-272.78,-272.80,-11,519,-948,24.0,2.4,-26.4,24.0,2.4,-26.0,5.73,1.75,-17.6,30.0
2016-03-07 00:55:00,0.0,1.93805,0.00062,407.090,0.026,0.0915,0.0014,139.998,45.002,31649.16128,1.93983,407.538,36.500,45.069,45.000,0.00,0.08,-272.77,-272.82,-10,519,-948,24.0,2.4,-26.3,24.0,2.5,-25.9,5.73,1.94,-17.6,30.0
2016-03-07 00:56:00,0.0,1.93715,0.00048,407.082,0.029,0.0924,0.0015,140.000,45.001,31649.53443,1.93891,407.536,36.505,45.069,45.000,0.00,0.08,-272.77,-272.83,-10,519,-948,24.0,2.5,-26.0,24.0,2.5,-25.8,5.73,2.05,-17.6,30.0
2016-03-07 00:57:00,0.0,1.93748,0.00037,407.067,0.022,0.0937,0.0013,140.000,45.000,31645.47971,1.93928,407.525,36.530,45.069,45.000,0.00,0.08,-272.76,-272.84,-11,519,-948,24.0,2.5,-25.9,24.0,2.6,-25.6,5.73,1.72,-17.6,30.0
2016-03-07 00:58:00,0.0,1.93720,0.00035,407.036,0.028,0.0921,0.0019,140.001,45.005,31651.21469,1.93894,407.488,36.552,45.069,44.999,0.00,0.08,-272.77,-272.82,-11,519,-948,24.0,2.4,-26.1,24.0,2.5,-25.7,5.73,2.05,-17.6,30.0
2016-03-07 00:59:00,0.0,1.93731,0.00032,407.063,0.036,0.0916,0.0016,140.002,45.008,31656.33901,1.93905,407.513,36.562,45.069,44.999,0.00,0.08,-272.76,-272.82,-10,519,-948,24.0,2.4,-26.2,24.0,2.5,-25.8,5.73,1.95,-17.6,30.0
2016-03-07 01:00:00,0.0,1.93731,0.00032,407.027,0.020,0.0902,0.0016,140.000,45.008,31661.07982,1.93902,407.468,36.563,45.069,44.999,0.00,0.08,-272.77,-272.83,-11,518,-948,24.0,2.4,-26.4,24.0,2.5,-25.9,5.73,1.75,-17.6,30.0
2016-03-07 01:01:00,0.0,1.93720,0.00033,407.028,0.037,0.0903,0.0015,140.001,45.006,31663.40200,1.93893,407.472,36.567,45.069,45.000,0.00,0.08,-272.78,-272.82,-12,519,-948,24.0,2.4,-26.4,24.0,2.5,-25.9,5.73,2.11,-17.6,30.0
2016-03-07 01:02:00,0.0,1.93717,0.00033,407.041,0.033,0.0898,0.0016,139.999,45.003,31663.76347,1.93889,407.480,36.569,45.069,45.000,0.00,0.08,-272.77,-272.82,-10,519,-948,23.9,2.4,-26.4,24.0,2.5,-25.9,5.73,1.83,-17.6,30.0
2016-03-07 01:03:00,0.0,1.93690,0.00029,407.021,0.034,0.0893,0.0018,139.998,45.000,31666.47927,1.93860,407.458,36.562,45.070,45.000,0.00,0.08,-272.76,-272.82,-10,518,-948,23.9,2.4,-26.4,24.0,2.5,-26.0,5.73,1.84,-17.6,30.0
2016-03-07 01:04:00,0.0,1.93733,0.00031,407.044,0.028,0.0885,0.0017,139.999,44.998,31666.69526,1.93901,407.478,36.556,45.070,45.000,0.00,0.08,-272.77,-272.83,-12,519,-948,23.9,2.4,-26.5,24.0,2.5,-26.0,5.73,2.11,-17.6,30.0
2016-03-07 01:05:00,0.0,1.93708,0.00030,407.030,0.028,0.0884,0.0019,140.000,44.998,31666.88630,1.93877,407.464,36.557,45.070,45.000,0.00,0.08,-272.76,-272.82,-11,519,-948,23.9,2.4,-26.5,24.0,2.4,-26.1,5.73,1.74,-17.6,30.0
2016-03-07 01:06:00,0.0,1.93698,0.00047,407.017,0.045,0.0899,0.0016,140.001,44.997,31666.82055,1.93870,407.458,36.562,45.070,45.000,0.00,0.08,-272.77,-272.82,-10,519,-948,23.9,2.4,-26.4,24.0,2.5,-26.0,5.73,1.96,-17.6,30.0
2016-03-07 01:07:00,0.0,1.93700,0.00036,407.018,0.036,0.0896,0.0014,140.001,44.997,31665.24983,1.93868,407.456,36.552,45.069,45.000,0.00,0.08,-272.77,-272.83,-11,519,-948,23.9,2.4,-26.4,23.9,2.5,-26.0,5.73,2.03,-17.6,30.0
2016-03-07 01:08:00,0.0,1.93731,0.00033,407.070,0.033,0.0894,0.0017,140.000,44.996,31661.38992,1.93905,407.508,36.531,45.070,45.000,0.00,0.08,-272.76,-272.82,-11,519,-948,23.9,2.4,-26.4,23.9,2.5,-26.0,5.73,1.73,-17.6,30.0
2016-03-07 01:09:00,0.0,1.93716,0.00041,407.057,0.032,0.0906,0.0029,139.999,44.996,31660.59336,1.93887,407.500,36.525,45.070,45.000,0.00,0.08,-272.76,-272.82,-10,519,-948,23.9,2.4,-26.4,23.9,2.5,-26.0,5.73,2.05,-17.6,30.0
2016-03-07 01:10:00,0.0,1.93695,0.00041,407.012,0.035,0.0899,0.0016,139.996,44.996,31659.76450,1.93867,407.454,36.508,45.070,45.000,0.00,0.08,-272.76,-272.84,-11,519,-948,23.9,2.4,-26.3,23.9,2.5,-25.9,5.73,1.94,-17.6,30.0
2016-03-07 01:11:00,0.0,1.93694,0.00039,406.989,0.030,0.0913,0.0019,140.001,44.997,31660.04777,1.93870,407.436,36.510,45.070,45.000,0.00,0.08,-272.77,-272.83,-11,519,-948,23.9,2.4,-26.2,23.9,2.5,-25.9,5.73,1.76,-17.6,30.0
2016-03-07 01:12:00,0.0,1.93658,0.00040,406.965,0.031,0.0908,0.0017,140.001,44.997,31660.76761,1.93832,407.410,36.519,45.070,45.000,0.00,0.08,-272.77,-272.82,-10,519,-948,23.9,2.4,-26.2,23.9,2.5,-25.8,5.73,2.11,-17.6,30.0
2016-03-07 01:13:00,0.0,1.93653,0.00027,406.953,0.030,0.0928,0.0016,140.002,44.998,31659.23421,1.93830,407.408,36.532,45.070,45.000,0.00,0.08,-272.77,-272.83,-10,519,-948,23.8,2.5,-26.1,23.9,2.5,-25.7,5.73,1.82,-17.6,30.0
2016-03-07 01:14:00,0.0,1.93653,0.00039,406.973,0.026,0.0941,0.0015,139.998,44.998,31657.67500,1.93832,407.434,36.503,45.069,45.000,0.00,0.08,-272.77,-272.83,-11,519,-948,23.8,2.5,-26.0,23.9,2.6,-25.6,5.73,1.86,-17.6,30.0
2016-03-07 01:15:00,0.0,1.93676,0.00030,406.994,0.038,0.0941,0.0019,139.998,44.999,31654.87503,1.93856,407.455,36.499,45.070,45.000,0.00,0.08,-272.76,-272.82,-10,519,-948,23.8,2.5,-26.0,23.9,2.6,-25.6,5.73,2.10,-17.6,29.9
2016-03-07 01:16:00,0.0,1.93662,0.00042,406.977,0.030,0.0931,0.0013,140.001,44.999,31655.91662,1.93838,407.432,36.493,45.069,45.000,0.00,0.08,-272.76,-272.83,-10,518,-948,23.8,2.5,-26.0,23.9,2.6,-25.6,5.73,1.74,-17.6,30.0
2016-03-07 01:17:00,0.0,1.93662,0.00033,406.992,0.031,0.0940,0.0018,140.002,45.000,31654.91861,1.93842,407.453,36.479,45.069,45.000,0.00,0.08,-272.77,-272.82,-11,518,-948,23.8,2.5,-26.0,23.9,2.6,-25.6,5.73,1.98,-17.6,30.0
2016-03-07 01:18:00,0.0,1.93672,0.00052,406.959,0.025,0.0947,0.0013,140.000,45.000,31655.31340,1.93853,407.423,36.488,45.069,45.000,0.00,0.08,-272.77,-272.82,-11,519,-948,23.8,2.5,-25.9,23.9,2.6,-25.5,5.73,2.02,-17.6,30.0
2016-03-07 01:19:00,0.0,1.93621,0.00031,406.950,0.029,0.0957,0.0014,140.002,45.000,31655.08767,1.93803,407.421,36.499,45.069,45.000,0.00,0.08,-272.76,-272.82,-10,518,-948,23.8,2.5,-25.8,23.9,2.6,-25.4,5.73,1.73,-17.6,29.9
2016-03-07 01:20:00,0.0,1.93654,0.00048,406.950,0.028,0.0976,0.0020,140.000,45.000,31651.35943,1.93841,407.427,36.499,45.069,45.000,0.00,0.08,-272.78,-272.83,-11,518,-948,23.8,2.6,-25.7,23.8,2.6,-25.3,5.73,2.08,-17.6,30.0
2016-03-07 01:21:00,0.0,1.93635,0.00042,406.968,0.026,0.0965,0.0020,140.000,45.000,31650.68271,1.93819,407.441,36.498,45.069,45.000,0.00,0.08,-272.76,-272.83,-11,519,-948,23.8,2.6,-25.7,23.8,2.7,-25.3,5.73,1.89,-17.6,29.9
2016-03-07 01:22:00,0.0,1.93641,0.00027,406.957,0.031,0.0971,0.0018,139.999,45.001,31650.34471,1.93826,407.434,36.509,45.069,45.000,0.00,0.08,-272.76,-272.82,-10,518,-948,23.8,2.6,-25.6,23.9,2.7,-25.2,5.73,1.79,-17.6,29.9
2016-03-07 01:23:00,0.0,1.93671,0.00030,406.945,0.027,0.0980,0.0017,140.001,45.004,31655.82141,1.93858,407.424,36.503,45.069,45.000,0.00,0.08,-272.77,-272.82,-11,518,-948,23.8,2.6,-25.6,23.8,2.7,-25.3,5.73,2.11,-17.6,29.9
2016-03-07 01:24:00,0.0,1.93653,0.00034,406.946,0.031,0.0972,0.0018,139.998,45.004,31656.37341,1.93837,407.422,36.505,45.069,45.000,0.00,0.08,-272.76,-272.83,-11,519,-948,23.8,2.6,-25.7,23.8,2.7,-25.2,5.73,1.79,-17.6,29.9
2016-03-07 01:25:00,0.0,1.93654,0.00036,406.953,0.027,0.0980,0.0016,140.000,45.003,31657.70051,1.93843,407.434,36.508,45.069,45.000,0.00,0.08,-272.77,-272.82,-10,519,-948,23.8,2.6,-25.6,23.8,2.7,-25.2,5.73,1.90,-17.6,29.9
2016-03-07 01:26:00,0.0,1.93689,0.00037,406.954,0.025,0.0979,0.0017,140.001,45.002,31658.18064,1.93873,407.432,36.510,45.069,45.000,0.00,0.08,-272.77,-272.83,-10,518,-948,23.8,2.6,-25.6,23.8,2.7,-25.1,5.73,2.08,-17.6,29.9
2016-03-07 01:27:00,0.0,1.93666,0.00034,406.985,0.034,0.0985,0.0018,140.002,45.000,31659.50036,1.93857,407.469,36.544,45.070,45.000,0.00,0.08,-272.77,-272.83,-11,519,-948,23.8,2.6,-25.5,23.8,2.7,-25.1,5.73,1.73,-17.6,29.9
2016-03-07 01:28:00,0.0,1.93672,0.00030,406.956,0.034,0.0997,0.0016,140.001,44.999,31659.64666,1.93862,407.445,36.561,45.070,45.000,0.00,0.08,-272.77,-272.82,-10,519,-948,23.8,2.6,-25.4,23.8,2.7,-25.1,5.73,2.02,-17.6,29.9
2016-03-07 01:29:00,0.0,1.93658,0.00039,406.967,0.031,0.1000,0.0014,140.000,44.999,31659.17622,1.93847,407.458,36.577,45.069,45.000,0.00,0.08,-272.76,-272.82,-10,519,-948,23.8,2.7,-25.3,23.8,2.7,-25.0,5.73,1.97,-17.6,29.9
2016-03-07 01:30:00,0.0,1.93664,0.00052,406.964,0.026,0.0998,0.0017,140.002,44.999,31659.76546,1.93857,407.452,36.600,45.069,45.000,0.00,0.08,-272.77,-272.82,-11,519,-948,23.8,2.7,-25.3,23.8,2.7,-25.0,5.73,1.75,-17.6,29.9
2016-03-07 01:31:00,0.0,1.93701,0.00048,406.971,0.021,0.0987,0.0016,140.000,44.998,31657.48082,1.93887,407.455,36.620,45.069,45.000,0.00,0.08,-272.77,-272.82,-10,519,-948,23.8,2.6,-25.4,23.8,2.7,-25.0,5.73,2.10,-17.6,29.9
2016-03-07 01:32:00,0.0,1.93677,0.00030,406.957,0.034,0.0990,0.0020,139.999,44.999,31657.92541,1.93867,407.443,36.616,45.069,45.000,0.00,0.08,-272.77,-272.82,-10,518,-948,23.8,2.6,-25.4,23.8,2.7,-25.0,5.73,1.85,-17.6,29.9
2016-03-07 01:33:00,0.0,1.93678,0.00033,406.941,0.030,0.1004,0.0010,139.999,44.999,31656.45957,1.93871,407.432,36.587,45.069,44.999,0.00,0.08,-272.77,-272.82,-11,518,-948,23.8,2.7,-25.2,23.8,2.7,-25.0,5.73,1.84,-17.6,29.9
2016-03-07 01:34:00,0.0,1.93703,0.00034,406.966,0.021,0.1020,0.0019,140.000,44.999,31655.60156,1.93896,407.465,36.564,45.069,45.000,0.00,0.08,-272.77,-272.84,-11,518,-948,23.8,2.7,-25.2,23.9,2.7,-24.9,5.73,2.10,-17.6,29.9
2016-03-07 01:35:00,0.0,1.93735,0.00041,406.996,0.027,0.0994,0.0022,140.000,44.999,31653.17817,1.93923,407.483,36.557,45.070,45.000,0.00,0.08,-272.76,-272.83,-9,518,-948,23.8,2.6,-25.4,23.8,2.7,-24.9,5.73,1.74,-17.6,29.9
2016-03-07 01:36:00,0.0,1.93754,0.00050,407.003,0.027,0.0966,0.0016,140.000,44.999,31653.10795,1.93940,407.477,36.553,45.070,45.000,0.00,0.08,-272.76,-272.81,-11,518,-948,23.8,2.6,-25.7,23.8,2.7,-25.2,5.73,1.98,-17.6,29.9
2016-03-07 01:37:00,0.0,1.93721,0.00035,407.000,0.026,0.0963,0.0017,139.999,44.999,31653.46928,1.93904,407.471,36.552,45.070,45.001,0.00,0.08,-272.77,-272.83,-11,518,-948,23.8,2.6,-25.7,23.8,2.7,-25.3,5.73,2.01,-17.6,29.9
2016-03-07 01:38:00,0.0,1.93733,0.00026,406.983,0.025,0.0978,0.0014,139.998,45.000,31654.61345,1.93919,407.463,36.525,45.070,45.001,0.00,0.08,-272.77,-272.82,-10,518,-948,23.8,2.6,-25.6,23.8,2.7,-25.3,5.73,1.74,-17.6,29.9
2016-03-07 01:39:00,0.0,1.93722,0.00037,406.970,0.029,0.0981,0.0018,139.995,44.999,31652.98932,1.93911,407.451,36.541,45.070,45.001,0.00,0.08,-272.76,-272.82,-10,518,-948,23.8,2.6,-25.6,23.8,2.7,-25.2,5.73,2.09,-17.6,29.9
2016-03-07 01:40:00,0.0,1.93736,0.00050,407.007,0.029,0.0987,0.0018,139.998,44.997,31649.78794,1.93922,407.492,36.548,45.070,45.000,0.00,0.08,-272.76,-272.84,-11,519,-948,23.8,2.6,-25.5,23.8,2.7,-25.2,5.73,1.87,-17.6,29.9
2016-03-07 01:41:00,0.0,1.93750,0.00028,406.994,0.024,0.0984,0.0016,140.001,45.006,31654.43656,1.93937,407.475,36.557,45.069,45.000,0.00,0.08,-272.77,-272.83,-10,519,-948,23.8,2.6,-25.4,23.8,2.7,-25.0,5.73,1.81,-17.6,29.9
2016-03-07 01:42:00,0.0,1.93760,0.00039,407.003,0.022,0.0985,0.0024,140.000,45.014,31665.14999,1.93947,407.486,36.550,45.069,44.999,0.00,0.08,-272.77,-272.82,-10,518,-948,23.8,2.6,-25.5,23.8,2.7,-25.0,5.73,2.11,-17.6,29.9
2016-03-07 01:43:00,0.0,1.93761,0.00038,407.004,0.024,0.0987,0.0012,139.998,45.015,31671.89810,1.93950,407.487,36.531,45.069,45.000,0.00,0.08,-272.76,-272.82,-11,519,-948,23.8,2.6,-25.5,23.8,2.7,-25.2,5.73,1.75,-17.5,29.9
2016-03-07 01:44:00,0.0,1.93771,0.00036,407.001,0.024,0.0979,0.0013,140.000,45.013,31677.24850,1.93958,407.481,36.542,45.069,45.000,0.00,0.08,-272.78,-272.83,-10,519,-948,23.8,2.6,-25.5,23.9,2.7,-25.1,5.73,1.97,-17.6,29.9